Time,TemperatureF,DewpointF,PressureIn,WindDirection,WindDirectionDegrees,WindSpeedMPH,WindSpeedGustMPH,Humidity,HourlyPrecipIn,Conditions,Clouds,dailyrainin,SoftwareType,DateUTC
2015-05-24 00:01:00,55.3,25.0,29.96,ENE,70,2.0,5.0,31,0.00,,,0.00,weatherlink.com 1.10,2015-05-24 06:01:00,
2015-05-24 00:16:00,55.1,24.0,29.96,ENE,72,1.0,6.0,30,0.00,,,0.00,weatherlink.com 1.10,2015-05-24 06:16:00,
2015-05-24 00:46:00,51.0,27.0,29.96,ENE,65,0.0,1.0,39,0.00,,,0.00,weatherlink.com 1.10,2015-05-24 06:46:00,
2015-05-24 01:01:00,49.0,27.0,29.96,SSW,211,2.0,7.0,42,0.00,,,0.00,weatherlink.com 1.10,2015-05-24 07:01:00,
2015-05-24 01:16:00,46.9,27.0,29.97,SSW,212,0.0,1.0,47,0.00,,,0.00,weatherlink.com 1.10,2015-05-24 07:16:00,
2015-05-24 01:31:00,45.6,26.0,29.97,SSW,212,1.0,2.0,47,0.00,,,0.00,weatherlink.com 1.10,2015-05-24 07:31:00,
2015-05-24 01:46:00,44.8,27.0,29.97,SW,220,0.0,4.0,49,0.00,,,0.00,weatherlink.com 1.10,2015-05-24 07:46:00,
2015-05-24 02:01:00,43.8,27.0,29.98,West,262,0.0,6.0,51,0.00,,,0.00,weatherlink.com 1.10,2015-05-24 08:01:00,
2015-05-24 02:17:00,42.8,27.0,29.98,West,262,2.0,2.0,54,0.00,,,0.00,weatherlink.com 1.10,2015-05-24 08:17:00,
2015-05-24 02:32:00,41.9,26.0,29.98,West,262,0.0,1.0,54,0.00,,,0.00,weatherlink.com 1.10,2015-05-24 08:32:00,
2015-05-24 02:47:00,40.9,26.0,29.98,West,262,0.0,0.0,56,0.00,,,0.00,weatherlink.com 1.10,2015-05-24 08:47:00,
2015-05-24 03:02:00,40.3,26.0,29.98,West,262,0.0,0.0,58,0.00,,,0.00,weatherlink.com 1.10,2015-05-24 09:02:00,
2015-05-24 03:17:00,39.7,27.0,29.98,West,262,0.0,2.0,60,0.00,,,0.00,weatherlink.com 1.10,2015-05-24 09:17:00,
2015-05-24 03:32:00,39.4,26.0,29.98,West,262,0.0,0.0,60,0.00,,,0.00,weatherlink.com 1.10,2015-05-24 09:32:00,
2015-05-24 03:47:00,38.5,26.0,29.98,West,262,0.0,0.0,61,0.00,,,0.00,weatherlink.com 1.10,2015-05-24 09:47:00,
2015-05-24 04:02:00,38.1,26.0,29.98,West,262,0.0,1.0,62,0.00,,,0.00,weatherlink.com 1.10,2015-05-24 10:02:00,
2015-05-24 04:17:00,37.7,26.0,29.98,West,262,0.0,0.0,64,0.00,,,0.00,weatherlink.com 1.10,2015-05-24 10:17:00,
2015-05-24 04:32:00,37.8,27.0,29.98,West,262,0.0,2.0,64,0.00,,,0.00,weatherlink.com 1.10,2015-05-24 10:32:00,
2015-05-24 04:47:00,37.2,26.0,29.98,West,262,0.0,0.0,65,0.00,,,0.00,weatherlink.com 1.10,2015-05-24 10:47:00,
2015-05-24 05:02:00,37.5,27.0,29.97,West,262,0.0,2.0,65,0.00,,,0.00,weatherlink.com 1.10,2015-05-24 11:02:00,
2015-05-24 05:17:00,37.2,27.0,29.97,West,262,0.0,0.0,66,0.00,,,0.00,weatherlink.com 1.10,2015-05-24 11:17:00,
2015-05-24 05:32:00,37.2,27.0,29.98,West,262,0.0,0.0,66,0.00,,,0.00,weatherlink.com 1.10,2015-05-24 11:32:00,
2015-05-24 05:47:00,37.0,27.0,29.97,West,262,0.0,0.0,67,0.00,,,0.00,weatherlink.com 1.10,2015-05-24 11:47:00,
2015-05-24 06:03:00,37.0,28.0,29.97,West,262,0.0,1.0,69,0.00,,,0.00,weatherlink.com 1.10,2015-05-24 12:03:00,
2015-05-24 06:18:00,36.9,28.0,29.97,West,262,0.0,0.0,69,0.00,,,0.00,weatherlink.com 1.10,2015-05-24 12:18:00,
2015-05-24 06:33:00,36.9,28.0,29.97,West,262,0.0,0.0,70,0.00,,,0.00,weatherlink.com 1.10,2015-05-24 12:33:00,
2015-05-24 06:48:00,37.1,28.0,29.97,West,262,0.0,1.0,70,0.00,,,0.00,weatherlink.com 1.10,2015-05-24 12:48:00,
2015-05-24 07:03:00,37.1,28.0,29.97,West,262,0.0,0.0,70,0.00,,,0.00,weatherlink.com 1.10,2015-05-24 13:03:00,
2015-05-24 07:18:00,37.1,28.0,29.96,West,262,0.0,2.0,71,0.00,,,0.00,weatherlink.com 1.10,2015-05-24 13:18:00,
2015-05-24 07:33:00,37.8,30.0,29.96,West,262,0.0,1.0,72,0.00,,,0.00,weatherlink.com 1.10,2015-05-24 13:33:00,
2015-05-24 07:48:00,40.6,31.0,29.96,West,262,0.0,0.0,68,0.00,,,0.00,weatherlink.com 1.10,2015-05-24 13:48:00,
2015-05-24 08:03:00,44.4,32.0,29.95,West,262,0.0,0.0,62,0.00,,,0.00,weatherlink.com 1.10,2015-05-24 14:03:00,
2015-05-24 08:18:00,45.7,31.0,29.95,West,262,0.0,0.0,56,0.00,,,0.00,weatherlink.com 1.10,2015-05-24 14:18:00,
2015-05-24 08:33:00,48.4,31.0,29.94,West,262,0.0,2.0,52,0.00,,,0.00,weatherlink.com 1.10,2015-05-24 14:33:00,
2015-05-24 08:48:00,49.3,31.0,29.93,West,280,4.0,4.0,50,0.00,,,0.00,weatherlink.com 1.10,2015-05-24 14:48:00,
2015-05-24 09:04:00,51.9,30.0,29.92,NNE,18,0.0,2.0,44,0.00,,,0.00,weatherlink.com 1.10,2015-05-24 15:04:00,
2015-05-24 09:19:00,53.1,30.0,29.92,NNE,18,1.0,4.0,42,0.00,,,0.00,weatherlink.com 1.10,2015-05-24 15:19:00,
2015-05-24 09:34:00,53.6,30.0,29.92,ENE,70,0.0,5.0,40,0.00,,,0.00,weatherlink.com 1.10,2015-05-24 15:34:00,
2015-05-24 09:49:00,54.6,29.0,29.91,ENE,62,0.0,4.0,38,0.00,,,0.00,weatherlink.com 1.10,2015-05-24 15:49:00,
2015-05-24 10:04:00,56.0,29.0,29.91,ENE,65,0.0,5.0,36,0.00,,,0.00,weatherlink.com 1.10,2015-05-24 16:04:00,
2015-05-24 10:19:00,57.1,31.0,29.90,SSE,167,1.0,6.0,37,0.00,,,0.00,weatherlink.com 1.10,2015-05-24 16:19:00,
2015-05-24 10:34:00,57.5,29.0,29.90,SSW,195,0.0,6.0,34,0.00,,,0.00,weatherlink.com 1.10,2015-05-24 16:34:00,
2015-05-24 10:49:00,59.0,29.0,29.89,ESE,109,0.0,7.0,32,0.00,,,0.00,weatherlink.com 1.10,2015-05-24 16:49:00,
2015-05-24 11:04:00,60.5,29.0,29.88,West,265,5.0,7.0,30,0.00,,,0.00,weatherlink.com 1.10,2015-05-24 17:04:00,
2015-05-24 11:19:00,61.3,27.0,29.88,WSW,250,6.0,9.0,27,0.00,,,0.00,weatherlink.com 1.10,2015-05-24 17:19:00,
2015-05-24 11:34:00,62.3,28.0,29.87,ENE,58,2.0,10.0,27,0.00,,,0.00,weatherlink.com 1.10,2015-05-24 17:34:00,
2015-05-24 11:50:00,62.6,28.0,29.87,West,273,9.0,11.0,27,0.00,,,0.00,weatherlink.com 1.10,2015-05-24 17:50:00,
2015-05-24 12:04:00,61.8,27.0,29.86,West,261,9.0,10.0,27,0.00,,,0.00,weatherlink.com 1.10,2015-05-24 18:04:00,
2015-05-24 12:19:00,62.3,28.0,29.85,West,270,5.0,10.0,27,0.00,,,0.00,weatherlink.com 1.10,2015-05-24 18:19:00,
2015-05-24 12:34:00,62.3,27.0,29.85,West,275,4.0,14.0,26,0.00,,,0.00,weatherlink.com 1.10,2015-05-24 18:34:00,
2015-05-24 12:49:00,62.2,27.0,29.84,West,260,0.0,8.0,26,0.00,,,0.00,weatherlink.com 1.10,2015-05-24 18:49:00,
2015-05-24 13:04:00,62.5,28.0,29.84,SW,230,2.0,7.0,27,0.00,,,0.00,weatherlink.com 1.10,2015-05-24 19:04:00,
2015-05-24 13:19:00,63.2,28.0,29.83,SSW,196,1.0,7.0,26,0.00,,,0.00,weatherlink.com 1.10,2015-05-24 19:19:00,
2015-05-24 13:49:00,65.0,28.0,29.82,ESE,106,4.0,10.0,25,0.00,,,0.00,weatherlink.com 1.10,2015-05-24 19:49:00,
2015-05-24 14:04:00,64.5,28.0,29.82,SSW,197,1.0,7.0,25,0.00,,,0.00,weatherlink.com 1.10,2015-05-24 20:04:00,
2015-05-24 14:19:00,64.1,26.0,29.82,ESE,106,4.0,7.0,24,0.00,,,0.00,weatherlink.com 1.10,2015-05-24 20:19:00,
2015-05-24 14:34:00,65.8,27.0,29.81,SE,129,1.0,10.0,23,0.00,,,0.00,weatherlink.com 1.10,2015-05-24 20:34:00,
2015-05-24 14:49:00,66.3,25.0,29.80,SW,232,5.0,9.0,21,0.00,,,0.00,weatherlink.com 1.10,2015-05-24 20:49:00,
2015-05-24 15:05:00,66.7,25.0,29.80,East,101,2.0,12.0,21,0.00,,,0.00,weatherlink.com 1.10,2015-05-24 21:05:00,
2015-05-24 15:20:00,66.6,25.0,29.79,ESE,110,4.0,10.0,21,0.00,,,0.00,weatherlink.com 1.10,2015-05-24 21:20:00,
2015-05-24 15:35:00,66.5,27.0,29.79,NE,37,2.0,8.0,23,0.00,,,0.00,weatherlink.com 1.10,2015-05-24 21:35:00,
2015-05-24 15:50:00,63.7,25.0,29.78,NE,40,6.0,15.0,23,0.00,,,0.00,weatherlink.com 1.10,2015-05-24 21:50:00,
2015-05-24 16:05:00,63.1,26.0,29.78,NNE,12,1.0,9.0,24,0.00,,,0.00,weatherlink.com 1.10,2015-05-24 22:05:00,
2015-05-24 16:20:00,62.5,28.0,29.78,NNE,31,2.0,10.0,27,0.00,,,0.00,weatherlink.com 1.10,2015-05-24 22:20:00,
2015-05-24 16:35:00,62.7,27.0,29.77,NE,45,3.0,7.0,26,0.00,,,0.00,weatherlink.com 1.10,2015-05-24 22:35:00,
2015-05-24 17:05:00,63.4,30.0,29.77,SSE,163,1.0,10.0,28,0.00,,,0.00,weatherlink.com 1.10,2015-05-24 23:05:00,
2015-05-24 17:20:00,62.7,29.0,29.77,ENE,77,5.0,13.0,28,0.00,,,0.00,weatherlink.com 1.10,2015-05-24 23:20:00,
2015-05-24 17:35:00,61.8,28.0,29.77,East,99,2.0,12.0,28,0.00,,,0.00,weatherlink.com 1.10,2015-05-24 23:35:00,
2015-05-24 17:50:00,61.6,28.0,29.77,East,85,1.0,10.0,28,0.00,,,0.00,weatherlink.com 1.10,2015-05-24 23:50:00,
2015-05-24 18:05:00,62.3,26.0,29.76,ENE,62,0.0,4.0,25,0.00,,,0.00,weatherlink.com 1.10,2015-05-25 00:05:00,
2015-05-24 18:20:00,62.9,28.0,29.76,WSW,253,6.0,8.0,27,0.00,,,0.00,weatherlink.com 1.10,2015-05-25 00:20:00,
2015-05-24 18:35:00,62.8,27.0,29.76,WSW,257,3.0,6.0,26,0.00,,,0.00,weatherlink.com 1.10,2015-05-25 00:35:00,
2015-05-24 18:50:00,62.8,28.0,29.75,West,272,6.0,8.0,27,0.00,,,0.00,weatherlink.com 1.10,2015-05-25 00:50:00,
2015-05-24 19:05:00,63.1,30.0,29.75,WSW,247,2.0,6.0,29,0.00,,,0.00,weatherlink.com 1.10,2015-05-25 01:05:00,
2015-05-24 19:20:00,61.6,31.0,29.75,WSW,251,7.0,15.0,31,0.00,,,0.00,weatherlink.com 1.10,2015-05-25 01:20:00,
2015-05-24 19:35:00,60.8,31.0,29.75,West,263,9.0,13.0,33,0.00,,,0.00,weatherlink.com 1.10,2015-05-25 01:35:00,
2015-05-24 19:50:00,60.3,31.0,29.76,West,272,8.0,11.0,33,0.00,,,0.00,weatherlink.com 1.10,2015-05-25 01:50:00,
2015-05-24 20:05:00,59.2,33.0,29.75,West,273,12.0,12.0,37,0.00,,,0.00,weatherlink.com 1.10,2015-05-25 02:05:00,